owner,sensor,date,latitude,longitude,vertical_datum,sea_water_temperature,qcFlag 
TABS,ioos:station:wmo:42044:1,2002-05-14T15:30:00Z,26.1914,-97.0507,-2.0,24.92,11111222 
TABS,ioos:station:wmo:42044:1,2002-05-14T16:00:00Z,26.1914,-97.0507,-2.0,24.93,11111222 
TABS,ioos:station:wmo:42044:1,2002-05-14T16:30:00Z,26.1914,-97.0507,-2.0,24.97,11111222 
TABS,ioos:station:wmo:42044:1,2002-05-14T17:00:00Z,26.1914,-97.0507,-2.0,25.02,11111222 
TABS,ioos:station:wmo:42044:1,2002-05-14T17:30:00Z,26.1914,-97.0507,-2.0,25.07,11111222 
TABS,ioos:station:wmo:42044:1,2002-05-14T18:00:00Z,26.1914,-97.0507,-2.0,25.13,11111222 
TABS,ioos:station:wmo:42044:1,2002-05-14T18:30:00Z,26.1914,-97.0507,-2.0,25.15,11111222 
TABS,ioos:station:wmo:42044:1,2002-05-14T19:00:00Z,26.1914,-97.0507,-2.0,25.22,11111222 
TABS,ioos:station:wmo:42044:1,2002-05-14T19:30:00Z,26.1914,-97.0507,-2.0,25.22,11111222 
TABS,ioos:station:wmo:42044:1,2002-05-14T20:00:00Z,26.1914,-97.0507,-2.0,25.2,11111222 
TABS,ioos:station:wmo:42044:1,2002-05-14T20:30:00Z,26.1914,-97.0507,-2.0,25.22,11111222 
TABS,ioos:station:wmo:42044:1,2002-05-14T21:00:00Z,26.1914,-97.0507,-2.0,25.25,11111222 
TABS,ioos:station:wmo:42044:1,2002-05-14T21:30:00Z,26.1914,-97.0507,-2.0,25.25,11111222 
TABS,ioos:station:wmo:42044:1,2002-05-14T22:00:00Z,26.1914,-97.0507,-2.0,25.24,11111222 
TABS,ioos:station:wmo:42044:1,2002-05-14T22:30:00Z,26.1914,-97.0507,-2.0,25.24,11111222 
TABS,ioos:station:wmo:42044:1,2002-05-14T23:00:00Z,26.1914,-97.0507,-2.0,25.27,11111222 
TABS,ioos:station:wmo:42044:1,2002-05-14T23:30:00Z,26.1914,-97.0507,-2.0,25.28,11111222 
TABS,ioos:station:wmo:42044:1,2002-05-15T00:00:00Z,26.1914,-97.0507,-2.0,25.28,11111222 
TABS,ioos:station:wmo:42044:1,2002-05-15T00:30:00Z,26.1914,-97.0507,-2.0,25.29,11111222 
TABS,ioos:station:wmo:42044:1,2002-05-15T01:00:00Z,26.1914,-97.0507,-2.0,25.29,11111222 
TABS,ioos:station:wmo:42044:1,2002-05-15T01:30:00Z,26.1914,-97.0507,-2.0,25.27,11111222 
TABS,ioos:station:wmo:42044:1,2002-05-15T02:00:00Z,26.1914,-97.0507,-2.0,25.27,11111222 
TABS,ioos:station:wmo:42044:1,2002-05-15T02:30:00Z,26.1914,-97.0507,-2.0,25.22,11111222 
TABS,ioos:station:wmo:42044:1,2002-05-15T03:00:00Z,26.1914,-97.0507,-2.0,25.25,11111222 
TABS,ioos:station:wmo:42044:1,2002-05-15T03:30:00Z,26.1914,-97.0507,-2.0,25.25,11111222 
TABS,ioos:station:wmo:42044:1,2002-05-15T04:00:00Z,26.1914,-97.0507,-2.0,25.26,11111222 
TABS,ioos:station:wmo:42044:1,2002-05-15T04:30:00Z,26.1914,-97.0507,-2.0,25.24,11111222 
TABS,ioos:station:wmo:42044:1,2002-05-15T05:00:00Z,26.1914,-97.0507,-2.0,25.23,11111222 
TABS,ioos:station:wmo:42044:1,2002-05-15T05:30:00Z,26.1914,-97.0507,-2.0,25.22,11111222 
TABS,ioos:station:wmo:42044:1,2002-05-15T06:00:00Z,26.1914,-97.0507,-2.0,25.2,11111222 
TABS,ioos:station:wmo:42044:1,2002-05-15T06:30:00Z,26.1914,-97.0507,-2.0,25.22,11111222 
TABS,ioos:station:wmo:42044:1,2002-05-15T07:00:00Z,26.1914,-97.0507,-2.0,25.22,11111222 
TABS,ioos:station:wmo:42044:1,2002-05-15T07:30:00Z,26.1914,-97.0507,-2.0,25.23,11111222 
TABS,ioos:station:wmo:42044:1,2002-05-15T08:00:00Z,26.1914,-97.0507,-2.0,25.25,11111222 
TABS,ioos:station:wmo:42044:1,2002-05-15T08:30:00Z,26.1914,-97.0507,-2.0,25.27,11111222 
TABS,ioos:station:wmo:42044:1,2002-05-15T09:00:00Z,26.1914,-97.0507,-2.0,25.27,11111222 
TABS,ioos:station:wmo:42044:1,2002-05-15T09:30:00Z,26.1914,-97.0507,-2.0,25.25,11111222 
TABS,ioos:station:wmo:42044:1,2002-05-15T10:00:00Z,26.1914,-97.0507,-2.0,25.3,11111222 
TABS,ioos:station:wmo:42044:1,2002-05-15T10:30:00Z,26.1914,-97.0507,-2.0,25.27,11111222 
TABS,ioos:station:wmo:42044:1,2002-05-15T11:00:00Z,26.1914,-97.0507,-2.0,25.27,11111222 
TABS,ioos:station:wmo:42044:1,2002-05-15T11:30:00Z,26.1914,-97.0507,-2.0,25.21,11111222 
TABS,ioos:station:wmo:42044:1,2002-05-15T12:00:00Z,26.1914,-97.0507,-2.0,25.18,11111222 
TABS,ioos:station:wmo:42044:1,2002-05-15T12:30:00Z,26.1914,-97.0507,-2.0,25.2,11111222 
TABS,ioos:station:wmo:42044:1,2002-05-15T13:00:00Z,26.1914,-97.0507,-2.0,25.28,11111222 
TABS,ioos:station:wmo:42044:1,2002-05-15T13:30:00Z,26.1914,-97.0507,-2.0,25.33,11111222 
TABS,ioos:station:wmo:42044:1,2002-05-15T14:00:00Z,26.1914,-97.0507,-2.0,25.35,11111222 
TABS,ioos:station:wmo:42044:1,2002-05-15T14:30:00Z,26.1914,-97.0507,-2.0,25.37,11111222 
TABS,ioos:station:wmo:42044:1,2002-05-15T15:00:00Z,26.1914,-97.0507,-2.0,25.42,11111222 
TABS,ioos:station:wmo:42044:1,2002-05-15T15:30:00Z,26.1914,-97.0507,-2.0,25.46,11111222 
TABS,ioos:station:wmo:42044:1,2002-05-15T16:00:00Z,26.1914,-97.0507,-2.0,25.6,11111222 
TABS,ioos:station:wmo:42044:1,2002-05-15T16:30:00Z,26.1914,-97.0507,-2.0,25.7,11111222 
TABS,ioos:station:wmo:42044:1,2002-05-15T17:00:00Z,26.1914,-97.0507,-2.0,25.72,11111222 
TABS,ioos:station:wmo:42044:1,2002-05-15T17:30:00Z,26.1914,-97.0507,-2.0,25.84,11111222 
TABS,ioos:station:wmo:42044:1,2002-05-15T18:00:00Z,26.1914,-97.0507,-2.0,25.87,11111222 
TABS,ioos:station:wmo:42044:1,2002-05-15T18:30:00Z,26.1914,-97.0507,-2.0,25.88,11111222 
TABS,ioos:station:wmo:42044:1,2002-05-15T19:00:00Z,26.1914,-97.0507,-2.0,25.99,11111222 
TABS,ioos:station:wmo:42044:1,2002-05-15T19:30:00Z,26.1914,-97.0507,-2.0,26.03,11111222 
TABS,ioos:station:wmo:42044:1,2002-05-15T20:00:00Z,26.1914,-97.0507,-2.0,26.02,11111222 
TABS,ioos:station:wmo:42044:1,2002-05-15T20:30:00Z,26.1914,-97.0507,-2.0,26.1,11111222 
TABS,ioos:station:wmo:42044:1,2002-05-15T21:00:00Z,26.1914,-97.0507,-2.0,26.11,11111222 
TABS,ioos:station:wmo:42044:1,2002-05-15T21:30:00Z,26.1914,-97.0507,-2.0,26.0,11111222 
TABS,ioos:station:wmo:42044:1,2002-05-15T22:00:00Z,26.1914,-97.0507,-2.0,25.98,11111222 
TABS,ioos:station:wmo:42044:1,2002-05-15T22:30:00Z,26.1914,-97.0507,-2.0,25.93,11111222 
TABS,ioos:station:wmo:42044:1,2002-05-15T23:00:00Z,26.1914,-97.0507,-2.0,25.93,11111222 
TABS,ioos:station:wmo:42044:1,2002-05-15T23:30:00Z,26.1914,-97.0507,-2.0,25.91,11111222 
TABS,ioos:station:wmo:42044:1,2002-05-16T00:00:00Z,26.1914,-97.0507,-2.0,25.92,11111222 
TABS,ioos:station:wmo:42044:1,2002-05-16T00:30:00Z,26.1914,-97.0507,-2.0,25.94,11111222 
TABS,ioos:station:wmo:42044:1,2002-05-16T01:00:00Z,26.1914,-97.0507,-2.0,25.93,11111222 
TABS,ioos:station:wmo:42044:1,2002-05-16T01:30:00Z,26.1914,-97.0507,-2.0,25.9,11111222 
TABS,ioos:station:wmo:42044:1,2002-05-16T02:00:00Z,26.1914,-97.0507,-2.0,25.89,11111222 
TABS,ioos:station:wmo:42044:1,2002-05-16T02:30:00Z,26.1914,-97.0507,-2.0,25.87,11111222 
TABS,ioos:station:wmo:42044:1,2002-05-16T03:00:00Z,26.1914,-97.0507,-2.0,25.88,11111222 
TABS,ioos:station:wmo:42044:1,2002-05-16T03:30:00Z,26.1914,-97.0507,-2.0,25.88,11111222 
TABS,ioos:station:wmo:42044:1,2002-05-16T04:00:00Z,26.1914,-97.0507,-2.0,25.88,11111222 
TABS,ioos:station:wmo:42044:1,2002-05-16T04:30:00Z,26.1914,-97.0507,-2.0,25.89,11111222 
TABS,ioos:station:wmo:42044:1,2002-05-16T05:00:00Z,26.1914,-97.0507,-2.0,25.88,11111222 
TABS,ioos:station:wmo:42044:1,2002-05-16T05:30:00Z,26.1914,-97.0507,-2.0,25.87,11111222 
TABS,ioos:station:wmo:42044:1,2002-05-16T06:00:00Z,26.1914,-97.0507,-2.0,25.87,11111222 
TABS,ioos:station:wmo:42044:1,2002-05-16T06:30:00Z,26.1914,-97.0507,-2.0,25.84,11111222 
TABS,ioos:station:wmo:42044:1,2002-05-16T07:00:00Z,26.1914,-97.0507,-2.0,25.82,11111222 
TABS,ioos:station:wmo:42044:1,2002-05-16T07:30:00Z,26.1914,-97.0507,-2.0,25.78,11111222 
TABS,ioos:station:wmo:42044:1,2002-05-16T08:00:00Z,26.1914,-97.0507,-2.0,25.69,11111222 
TABS,ioos:station:wmo:42044:1,2002-05-16T08:30:00Z,26.1914,-97.0507,-2.0,25.68,11111222 
TABS,ioos:station:wmo:42044:1,2002-05-16T09:00:00Z,26.1914,-97.0507,-2.0,25.65,11111222 
TABS,ioos:station:wmo:42044:1,2002-05-16T09:30:00Z,26.1914,-97.0507,-2.0,25.64,11111222 
TABS,ioos:station:wmo:42044:1,2002-05-16T10:00:00Z,26.1914,-97.0507,-2.0,25.64,11111222 
TABS,ioos:station:wmo:42044:1,2002-05-16T10:30:00Z,26.1914,-97.0507,-2.0,25.64,11111222 
TABS,ioos:station:wmo:42044:1,2002-05-16T11:00:00Z,26.1914,-97.0507,-2.0,25.69,11111222 
TABS,ioos:station:wmo:42044:1,2002-05-16T11:30:00Z,26.1914,-97.0507,-2.0,25.68,11111222 
TABS,ioos:station:wmo:42044:1,2002-05-16T12:00:00Z,26.1914,-97.0507,-2.0,25.66,11111222 
TABS,ioos:station:wmo:42044:1,2002-05-16T12:30:00Z,26.1914,-97.0507,-2.0,25.66,11111222 
TABS,ioos:station:wmo:42044:1,2002-05-16T13:00:00Z,26.1914,-97.0507,-2.0,25.69,11111222 
TABS,ioos:station:wmo:42044:1,2002-05-16T13:30:00Z,26.1914,-97.0507,-2.0,25.74,11111222 
TABS,ioos:station:wmo:42044:1,2002-05-16T14:00:00Z,26.1914,-97.0507,-2.0,25.77,11111222 
TABS,ioos:station:wmo:42044:1,2002-05-16T14:30:00Z,26.1914,-97.0507,-2.0,25.77,11111222 
TABS,ioos:station:wmo:42044:1,2002-05-16T15:00:00Z,26.1914,-97.0507,-2.0,25.77,11111222 
TABS,ioos:station:wmo:42044:1,2002-05-16T15:30:00Z,26.1914,-97.0507,-2.0,25.78,11111222 
TABS,ioos:station:wmo:42044:1,2002-05-16T16:00:00Z,26.1914,-97.0507,-2.0,25.8,11111222 
TABS,ioos:station:wmo:42044:1,2002-05-16T16:30:00Z,26.1914,-97.0507,-2.0,25.84,11111222 
TABS,ioos:station:wmo:42044:1,2002-05-16T17:00:00Z,26.1914,-97.0507,-2.0,25.87,11111222 
TABS,ioos:station:wmo:42044:1,2002-05-16T17:30:00Z,26.1914,-97.0507,-2.0,25.97,11111222 
TABS,ioos:station:wmo:42044:1,2002-05-16T18:00:00Z,26.1914,-97.0507,-2.0,25.98,11111222 
TABS,ioos:station:wmo:42044:1,2002-05-16T18:30:00Z,26.1914,-97.0507,-2.0,26.04,11111222 
TABS,ioos:station:wmo:42044:1,2002-05-16T19:00:00Z,26.1914,-97.0507,-2.0,26.04,11111222 
TABS,ioos:station:wmo:42044:1,2002-05-16T19:30:00Z,26.1914,-97.0507,-2.0,26.08,11111222 
TABS,ioos:station:wmo:42044:1,2002-05-16T20:00:00Z,26.1914,-97.0507,-2.0,26.12,11111222 
TABS,ioos:station:wmo:42044:1,2002-05-16T20:30:00Z,26.1914,-97.0507,-2.0,26.13,11111222 
TABS,ioos:station:wmo:42044:1,2002-05-16T21:00:00Z,26.1914,-97.0507,-2.0,26.12,11111222 
TABS,ioos:station:wmo:42044:1,2002-05-16T21:30:00Z,26.1914,-97.0507,-2.0,26.11,11111222 
TABS,ioos:station:wmo:42044:1,2002-05-16T22:00:00Z,26.1914,-97.0507,-2.0,26.1,11111222 
TABS,ioos:station:wmo:42044:1,2002-05-16T22:30:00Z,26.1914,-97.0507,-2.0,26.09,11111222 
TABS,ioos:station:wmo:42044:1,2002-05-16T23:00:00Z,26.1914,-97.0507,-2.0,26.06,11111222 
TABS,ioos:station:wmo:42044:1,2002-05-16T23:30:00Z,26.1914,-97.0507,-2.0,26.05,11111222 
TABS,ioos:station:wmo:42044:1,2002-05-17T00:00:00Z,26.1914,-97.0507,-2.0,26.04,11111222 
TABS,ioos:station:wmo:42044:1,2002-05-17T00:30:00Z,26.1914,-97.0507,-2.0,26.03,11111222 
TABS,ioos:station:wmo:42044:1,2002-05-17T01:00:00Z,26.1914,-97.0507,-2.0,26.03,11111222 
TABS,ioos:station:wmo:42044:1,2002-05-17T01:30:00Z,26.1914,-97.0507,-2.0,26.03,11111222 
TABS,ioos:station:wmo:42044:1,2002-05-17T02:00:00Z,26.1914,-97.0507,-2.0,26.04,11111222 
TABS,ioos:station:wmo:42044:1,2002-05-17T02:30:00Z,26.1914,-97.0507,-2.0,26.03,11111222 
TABS,ioos:station:wmo:42044:1,2002-05-17T03:00:00Z,26.1914,-97.0507,-2.0,26.01,11111222 
TABS,ioos:station:wmo:42044:1,2002-05-17T03:30:00Z,26.1914,-97.0507,-2.0,26.02,11111222 
TABS,ioos:station:wmo:42044:1,2002-05-17T04:00:00Z,26.1914,-97.0507,-2.0,26.02,11111222 
TABS,ioos:station:wmo:42044:1,2002-05-17T04:30:00Z,26.1914,-97.0507,-2.0,26.03,11111222 
TABS,ioos:station:wmo:42044:1,2002-05-17T05:00:00Z,26.1914,-97.0507,-2.0,26.02,11111222 
TABS,ioos:station:wmo:42044:1,2002-05-17T05:30:00Z,26.1914,-97.0507,-2.0,26.01,11111222 
TABS,ioos:station:wmo:42044:1,2002-05-17T06:00:00Z,26.1914,-97.0507,-2.0,26.0,11111222 
TABS,ioos:station:wmo:42044:1,2002-05-17T06:30:00Z,26.1914,-97.0507,-2.0,25.98,11111222 
TABS,ioos:station:wmo:42044:1,2002-05-17T07:00:00Z,26.1914,-97.0507,-2.0,25.84,11111222 
TABS,ioos:station:wmo:42044:1,2002-05-17T07:30:00Z,26.1914,-97.0507,-2.0,25.83,11111222 
TABS,ioos:station:wmo:42044:1,2002-05-17T08:00:00Z,26.1914,-97.0507,-2.0,25.82,11111222 
TABS,ioos:station:wmo:42044:1,2002-05-17T08:30:00Z,26.1914,-97.0507,-2.0,25.93,11111222 
TABS,ioos:station:wmo:42044:1,2002-05-17T09:00:00Z,26.1914,-97.0507,-2.0,26.02,11111222 
TABS,ioos:station:wmo:42044:1,2002-05-17T09:30:00Z,26.1914,-97.0507,-2.0,25.92,11111222 
TABS,ioos:station:wmo:42044:1,2002-05-17T10:00:00Z,26.1914,-97.0507,-2.0,25.94,11111222 
TABS,ioos:station:wmo:42044:1,2002-05-17T10:30:00Z,26.1914,-97.0507,-2.0,25.87,11111222 
TABS,ioos:station:wmo:42044:1,2002-05-17T11:00:00Z,26.1914,-97.0507,-2.0,25.79,11111222 
TABS,ioos:station:wmo:42044:1,2002-05-17T11:30:00Z,26.1914,-97.0507,-2.0,25.82,11111222 
TABS,ioos:station:wmo:42044:1,2002-05-17T12:00:00Z,26.1914,-97.0507,-2.0,25.83,11111222 
TABS,ioos:station:wmo:42044:1,2002-05-17T12:30:00Z,26.1914,-97.0507,-2.0,25.87,11111222 
TABS,ioos:station:wmo:42044:1,2002-05-17T13:00:00Z,26.1914,-97.0507,-2.0,25.89,11111222 
TABS,ioos:station:wmo:42044:1,2002-05-17T13:30:00Z,26.1914,-97.0507,-2.0,25.93,11111222 
TABS,ioos:station:wmo:42044:1,2002-05-17T14:00:00Z,26.1914,-97.0507,-2.0,25.93,11111222 
TABS,ioos:station:wmo:42044:1,2002-05-17T14:30:00Z,26.1914,-97.0507,-2.0,25.96,11111222 
TABS,ioos:station:wmo:42044:1,2002-05-17T15:00:00Z,26.1914,-97.0507,-2.0,26.0,11111222 
TABS,ioos:station:wmo:42044:1,2002-05-17T15:30:00Z,26.1914,-97.0507,-2.0,26.02,11111222 
TABS,ioos:station:wmo:42044:1,2002-05-17T16:00:00Z,26.1914,-97.0507,-2.0,26.12,11111222 
TABS,ioos:station:wmo:42044:1,2002-05-17T16:30:00Z,26.1914,-97.0507,-2.0,26.14,11111222 
TABS,ioos:station:wmo:42044:1,2002-05-17T17:00:00Z,26.1914,-97.0507,-2.0,26.16,11111222 
TABS,ioos:station:wmo:42044:1,2002-05-17T17:30:00Z,26.1914,-97.0507,-2.0,26.17,11111222 
TABS,ioos:station:wmo:42044:1,2002-05-17T18:00:00Z,26.1914,-97.0507,-2.0,26.18,11111222 
TABS,ioos:station:wmo:42044:1,2002-05-17T18:30:00Z,26.1914,-97.0507,-2.0,26.22,11111222 
TABS,ioos:station:wmo:42044:1,2002-05-17T19:00:00Z,26.1914,-97.0507,-2.0,26.25,11111222 
TABS,ioos:station:wmo:42044:1,2002-05-17T19:30:00Z,26.1914,-97.0507,-2.0,26.29,11111222 
TABS,ioos:station:wmo:42044:1,2002-05-17T20:00:00Z,26.1914,-97.0507,-2.0,26.37,11111222 
TABS,ioos:station:wmo:42044:1,2002-05-17T20:30:00Z,26.1914,-97.0507,-2.0,26.43,11111222 
TABS,ioos:station:wmo:42044:1,2002-05-17T21:00:00Z,26.1914,-97.0507,-2.0,26.35,11111222 
TABS,ioos:station:wmo:42044:1,2002-05-17T21:30:00Z,26.1914,-97.0507,-2.0,26.41,11111222 
TABS,ioos:station:wmo:42044:1,2002-05-17T22:00:00Z,26.1914,-97.0507,-2.0,26.44,11111222 
TABS,ioos:station:wmo:42044:1,2002-05-17T22:30:00Z,26.1914,-97.0507,-2.0,26.44,11111222 
TABS,ioos:station:wmo:42044:1,2002-05-17T23:00:00Z,26.1914,-97.0507,-2.0,26.4,11111222 
TABS,ioos:station:wmo:42044:1,2002-05-17T23:30:00Z,26.1914,-97.0507,-2.0,26.39,11111222 
TABS,ioos:station:wmo:42044:1,2002-05-18T00:00:00Z,26.1914,-97.0507,-2.0,26.38,11111222 
TABS,ioos:station:wmo:42044:1,2002-05-18T00:30:00Z,26.1914,-97.0507,-2.0,26.35,11111222 
TABS,ioos:station:wmo:42044:1,2002-05-18T01:00:00Z,26.1914,-97.0507,-2.0,26.36,11111222 
TABS,ioos:station:wmo:42044:1,2002-05-18T01:30:00Z,26.1914,-97.0507,-2.0,26.33,11111222 
TABS,ioos:station:wmo:42044:1,2002-05-18T02:00:00Z,26.1914,-97.0507,-2.0,26.31,11111222 
TABS,ioos:station:wmo:42044:1,2002-05-18T02:30:00Z,26.1914,-97.0507,-2.0,26.31,11111222 
TABS,ioos:station:wmo:42044:1,2002-05-18T03:00:00Z,26.1914,-97.0507,-2.0,26.31,11111222 
TABS,ioos:station:wmo:42044:1,2002-05-18T03:30:00Z,26.1914,-97.0507,-2.0,26.3,11111222 
TABS,ioos:station:wmo:42044:1,2002-05-18T04:00:00Z,26.1914,-97.0507,-2.0,26.29,11111222 
TABS,ioos:station:wmo:42044:1,2002-05-18T04:30:00Z,26.1914,-97.0507,-2.0,26.29,11111222 
TABS,ioos:station:wmo:42044:1,2002-05-18T05:00:00Z,26.1914,-97.0507,-2.0,26.26,11111222 
TABS,ioos:station:wmo:42044:1,2002-05-18T05:30:00Z,26.1914,-97.0507,-2.0,26.24,11111222 
TABS,ioos:station:wmo:42044:1,2002-05-18T06:00:00Z,26.1914,-97.0507,-2.0,26.21,11111222 
TABS,ioos:station:wmo:42044:1,2002-05-18T06:30:00Z,26.1914,-97.0507,-2.0,26.18,11111222 
TABS,ioos:station:wmo:42044:1,2002-05-18T07:00:00Z,26.1914,-97.0507,-2.0,26.16,11111222 
TABS,ioos:station:wmo:42044:1,2002-05-18T07:30:00Z,26.1914,-97.0507,-2.0,26.12,11111222 
TABS,ioos:station:wmo:42044:1,2002-05-18T08:00:00Z,26.1914,-97.0507,-2.0,26.11,11111222 
TABS,ioos:station:wmo:42044:1,2002-05-18T08:30:00Z,26.1914,-97.0507,-2.0,26.07,11111222 
TABS,ioos:station:wmo:42044:1,2002-05-18T09:00:00Z,26.1914,-97.0507,-2.0,26.02,11111222 
TABS,ioos:station:wmo:42044:1,2002-05-18T09:30:00Z,26.1914,-97.0507,-2.0,25.97,11111222 
TABS,ioos:station:wmo:42044:1,2002-05-18T10:00:00Z,26.1914,-97.0507,-2.0,25.93,11111222 
TABS,ioos:station:wmo:42044:1,2002-05-18T10:30:00Z,26.1914,-97.0507,-2.0,25.89,11111222 
TABS,ioos:station:wmo:42044:1,2002-05-18T11:00:00Z,26.1914,-97.0507,-2.0,25.85,11111222 
TABS,ioos:station:wmo:42044:1,2002-05-18T11:30:00Z,26.1914,-97.0507,-2.0,25.81,11111222 
TABS,ioos:station:wmo:42044:1,2002-05-18T12:00:00Z,26.1914,-97.0507,-2.0,25.78,11111222 
TABS,ioos:station:wmo:42044:1,2002-05-18T12:30:00Z,26.1914,-97.0507,-2.0,25.78,11111222 
TABS,ioos:station:wmo:42044:1,2002-05-18T13:00:00Z,26.1914,-97.0507,-2.0,25.83,11111222 
TABS,ioos:station:wmo:42044:1,2002-05-18T13:30:00Z,26.1914,-97.0507,-2.0,25.82,11111222 
TABS,ioos:station:wmo:42044:1,2002-05-18T14:00:00Z,26.1914,-97.0507,-2.0,25.8,11111222 
TABS,ioos:station:wmo:42044:1,2002-05-18T14:30:00Z,26.1914,-97.0507,-2.0,25.81,11111222 
TABS,ioos:station:wmo:42044:1,2002-05-18T15:00:00Z,26.1914,-97.0507,-2.0,25.83,11111222 
TABS,ioos:station:wmo:42044:1,2002-05-18T15:30:00Z,26.1914,-97.0507,-2.0,26.08,11111222 
TABS,ioos:station:wmo:42044:1,2002-05-18T16:00:00Z,26.1914,-97.0507,-2.0,26.11,11111222 
TABS,ioos:station:wmo:42044:1,2002-05-18T16:30:00Z,26.1914,-97.0507,-2.0,26.07,11111222 
TABS,ioos:station:wmo:42044:1,2002-05-18T17:00:00Z,26.1914,-97.0507,-2.0,26.11,11111222 
TABS,ioos:station:wmo:42044:1,2002-05-18T17:30:00Z,26.1914,-97.0507,-2.0,26.15,11111222 
TABS,ioos:station:wmo:42044:1,2002-05-18T18:00:00Z,26.1914,-97.0507,-2.0,26.18,11111222 
TABS,ioos:station:wmo:42044:1,2002-05-18T18:30:00Z,26.1914,-97.0507,-2.0,26.2,11111222 
TABS,ioos:station:wmo:42044:1,2002-05-18T19:00:00Z,26.1914,-97.0507,-2.0,26.21,11111222 
TABS,ioos:station:wmo:42044:1,2002-05-18T19:30:00Z,26.1914,-97.0507,-2.0,26.21,11111222 
TABS,ioos:station:wmo:42044:1,2002-05-18T20:00:00Z,26.1914,-97.0507,-2.0,26.2,11111222 
TABS,ioos:station:wmo:42044:1,2002-05-18T20:30:00Z,26.1914,-97.0507,-2.0,26.2,11111222 
TABS,ioos:station:wmo:42044:1,2002-05-18T21:00:00Z,26.1914,-97.0507,-2.0,26.21,11111222 
TABS,ioos:station:wmo:42044:1,2002-05-18T21:30:00Z,26.1914,-97.0507,-2.0,26.21,11111222 
TABS,ioos:station:wmo:42044:1,2002-05-18T22:00:00Z,26.1914,-97.0507,-2.0,26.22,11111222 
TABS,ioos:station:wmo:42044:1,2002-05-18T22:30:00Z,26.1914,-97.0507,-2.0,26.23,11111222 
TABS,ioos:station:wmo:42044:1,2002-05-18T23:00:00Z,26.1914,-97.0507,-2.0,26.21,11111222 
TABS,ioos:station:wmo:42044:1,2002-05-18T23:30:00Z,26.1914,-97.0507,-2.0,26.2,11111222 
TABS,ioos:station:wmo:42044:1,2002-05-19T00:00:00Z,26.1914,-97.0507,-2.0,26.2,11111222 
TABS,ioos:station:wmo:42044:1,2002-05-19T00:30:00Z,26.1914,-97.0507,-2.0,26.2,11111222 
TABS,ioos:station:wmo:42044:1,2002-05-19T01:00:00Z,26.1914,-97.0507,-2.0,26.19,11111222 
TABS,ioos:station:wmo:42044:1,2002-05-19T01:30:00Z,26.1914,-97.0507,-2.0,26.17,11111222 
TABS,ioos:station:wmo:42044:1,2002-05-19T02:00:00Z,26.1914,-97.0507,-2.0,26.17,11111222 
TABS,ioos:station:wmo:42044:1,2002-05-19T02:30:00Z,26.1914,-97.0507,-2.0,26.16,11111222 
TABS,ioos:station:wmo:42044:1,2002-05-19T03:00:00Z,26.1914,-97.0507,-2.0,26.14,11111222 
TABS,ioos:station:wmo:42044:1,2002-05-19T03:30:00Z,26.1914,-97.0507,-2.0,26.12,11111222 
TABS,ioos:station:wmo:42044:1,2002-05-19T04:00:00Z,26.1914,-97.0507,-2.0,26.12,11111222 
TABS,ioos:station:wmo:42044:1,2002-05-19T04:30:00Z,26.1914,-97.0507,-2.0,26.1,11111222 
TABS,ioos:station:wmo:42044:1,2002-05-19T05:00:00Z,26.1914,-97.0507,-2.0,26.08,11111222 
TABS,ioos:station:wmo:42044:1,2002-05-19T05:30:00Z,26.1914,-97.0507,-2.0,26.08,11111222 
TABS,ioos:station:wmo:42044:1,2002-05-19T06:00:00Z,26.1914,-97.0507,-2.0,26.09,11111222 
TABS,ioos:station:wmo:42044:1,2002-05-19T06:30:00Z,26.1914,-97.0507,-2.0,26.09,11111222 
TABS,ioos:station:wmo:42044:1,2002-05-19T07:00:00Z,26.1914,-97.0507,-2.0,26.07,11111222 
TABS,ioos:station:wmo:42044:1,2002-05-19T07:30:00Z,26.1914,-97.0507,-2.0,26.06,11111222 
TABS,ioos:station:wmo:42044:1,2002-05-19T08:00:00Z,26.1914,-97.0507,-2.0,26.03,11111222 
TABS,ioos:station:wmo:42044:1,2002-05-19T08:30:00Z,26.1914,-97.0507,-2.0,25.99,11111222 
TABS,ioos:station:wmo:42044:1,2002-05-19T09:00:00Z,26.1914,-97.0507,-2.0,25.97,11111222 
TABS,ioos:station:wmo:42044:1,2002-05-19T09:30:00Z,26.1914,-97.0507,-2.0,25.97,11111222 
TABS,ioos:station:wmo:42044:1,2002-05-19T10:00:00Z,26.1914,-97.0507,-2.0,25.96,11111222 
TABS,ioos:station:wmo:42044:1,2002-05-19T10:30:00Z,26.1914,-97.0507,-2.0,25.93,11111222 
TABS,ioos:station:wmo:42044:1,2002-05-19T11:00:00Z,26.1914,-97.0507,-2.0,25.91,11111222 
TABS,ioos:station:wmo:42044:1,2002-05-19T11:30:00Z,26.1914,-97.0507,-2.0,25.92,11111222 
TABS,ioos:station:wmo:42044:1,2002-05-19T12:00:00Z,26.1914,-97.0507,-2.0,25.92,11111222 
TABS,ioos:station:wmo:42044:1,2002-05-19T12:30:00Z,26.1914,-97.0507,-2.0,25.91,11111222 
TABS,ioos:station:wmo:42044:1,2002-05-19T13:00:00Z,26.1914,-97.0507,-2.0,25.9,11111222 
TABS,ioos:station:wmo:42044:1,2002-05-19T13:30:00Z,26.1914,-97.0507,-2.0,25.9,11111222 
TABS,ioos:station:wmo:42044:1,2002-05-19T14:00:00Z,26.1914,-97.0507,-2.0,25.89,11111222 
TABS,ioos:station:wmo:42044:1,2002-05-19T14:30:00Z,26.1914,-97.0507,-2.0,25.89,11111222 
TABS,ioos:station:wmo:42044:1,2002-05-19T15:00:00Z,26.1914,-97.0507,-2.0,25.9,11111222 
TABS,ioos:station:wmo:42044:1,2002-05-19T15:30:00Z,26.1914,-97.0507,-2.0,25.9,11111222 
TABS,ioos:station:wmo:42044:1,2002-05-19T16:00:00Z,26.1914,-97.0507,-2.0,25.93,11111222 
TABS,ioos:station:wmo:42044:1,2002-05-19T16:30:00Z,26.1914,-97.0507,-2.0,25.93,11111222 
TABS,ioos:station:wmo:42044:1,2002-05-19T17:00:00Z,26.1914,-97.0507,-2.0,25.94,11111222 
TABS,ioos:station:wmo:42044:1,2002-05-19T17:30:00Z,26.1914,-97.0507,-2.0,25.97,11111222 
TABS,ioos:station:wmo:42044:1,2002-05-19T18:00:00Z,26.1914,-97.0507,-2.0,25.99,11111222 
TABS,ioos:station:wmo:42044:1,2002-05-19T18:30:00Z,26.1914,-97.0507,-2.0,26.0,11111222 
TABS,ioos:station:wmo:42044:1,2002-05-19T19:00:00Z,26.1914,-97.0507,-2.0,26.03,11111222 
TABS,ioos:station:wmo:42044:1,2002-05-19T19:30:00Z,26.1914,-97.0507,-2.0,26.06,11111222 
TABS,ioos:station:wmo:42044:1,2002-05-19T20:00:00Z,26.1914,-97.0507,-2.0,26.06,11111222 
TABS,ioos:station:wmo:42044:1,2002-05-19T20:30:00Z,26.1914,-97.0507,-2.0,26.11,11111222 
TABS,ioos:station:wmo:42044:1,2002-05-19T21:00:00Z,26.1914,-97.0507,-2.0,26.09,11111222 
TABS,ioos:station:wmo:42044:1,2002-05-19T21:30:00Z,26.1914,-97.0507,-2.0,26.11,11111222 
TABS,ioos:station:wmo:42044:1,2002-05-19T22:00:00Z,26.1914,-97.0507,-2.0,26.11,11111222 
TABS,ioos:station:wmo:42044:1,2002-05-19T22:30:00Z,26.1914,-97.0507,-2.0,26.11,11111222 
TABS,ioos:station:wmo:42044:1,2002-05-19T23:00:00Z,26.1914,-97.0507,-2.0,26.09,11111222 
TABS,ioos:station:wmo:42044:1,2002-05-19T23:30:00Z,26.1914,-97.0507,-2.0,26.07,11111222 
TABS,ioos:station:wmo:42044:1,2002-05-20T00:00:00Z,26.1914,-97.0507,-2.0,26.06,11111222 
TABS,ioos:station:wmo:42044:1,2002-05-20T00:30:00Z,26.1914,-97.0507,-2.0,26.05,11111222 
TABS,ioos:station:wmo:42044:1,2002-05-20T01:00:00Z,26.1914,-97.0507,-2.0,26.05,11111222 
TABS,ioos:station:wmo:42044:1,2002-05-20T01:30:00Z,26.1914,-97.0507,-2.0,26.04,11111222 
TABS,ioos:station:wmo:42044:1,2002-05-20T02:00:00Z,26.1914,-97.0507,-2.0,26.02,11111222 
TABS,ioos:station:wmo:42044:1,2002-05-20T02:30:00Z,26.1914,-97.0507,-2.0,26.01,11111222 
TABS,ioos:station:wmo:42044:1,2002-05-20T03:00:00Z,26.1914,-97.0507,-2.0,26.0,11111222 
TABS,ioos:station:wmo:42044:1,2002-05-20T03:30:00Z,26.1914,-97.0507,-2.0,25.98,11111222 
TABS,ioos:station:wmo:42044:1,2002-05-20T04:00:00Z,26.1914,-97.0507,-2.0,25.96,11111222 
TABS,ioos:station:wmo:42044:1,2002-05-20T04:30:00Z,26.1914,-97.0507,-2.0,25.96,11111222 
TABS,ioos:station:wmo:42044:1,2002-05-20T05:00:00Z,26.1914,-97.0507,-2.0,25.93,11111222 
TABS,ioos:station:wmo:42044:1,2002-05-20T05:30:00Z,26.1914,-97.0507,-2.0,25.91,11111222 